SIL441 TNCA-TNCB

Flight info

Callsign SIL441
Flight time 0h 36m
Altitude 13000
Route ADRIV1F ADRIV A574 PJG DCT IMOMA
Aircraft AT76/M-SDFGIRY/S

Departure

Time 2026-05-03 20:36
Airport Queen Beatrix International Airport (TNCA)

Arrival

Time 2026-05-03 21:12
Airport Flamingo International Airport (TNCB)
Time Latitude Longitude Altitude Speed Heading
2026-05-03 20:15 12.50363 -70.01059 51 ft 0 kts 12°
2026-05-03 20:28 12.50354 -70.01061 51 ft 2 kts 12°
2026-05-03 20:28 12.50339 -70.01064 48 ft 2 kts 12°
2026-05-03 20:28 12.50324 -70.01068 48 ft 2 kts 12°
2026-05-03 20:28 12.50310 -70.01071 49 ft 2 kts 12°
2026-05-03 20:29 12.50295 -70.01074 48 ft 2 kts 12°
2026-05-03 20:29 12.50281 -70.01076 49 ft 2 kts 348°
2026-05-03 20:29 12.50266 -70.01072 50 ft 2 kts 318°
2026-05-03 20:29 12.50260 -70.01063 48 ft 0 kts 274°
2026-05-03 20:32 12.50261 -70.01072 50 ft 8 kts 269°
2026-05-03 20:33 12.50230 -70.01148 50 ft 11 kts 258°
2026-05-03 20:33 12.50254 -70.01255 48 ft 20 kts 284°
2026-05-03 20:33 12.50292 -70.01415 45 ft 25 kts 284°
2026-05-03 20:33 12.50337 -70.01600 41 ft 28 kts 284°
2026-05-03 20:34 12.50385 -70.01805 37 ft 31 kts 282°
2026-05-03 20:34 12.50436 -70.02024 32 ft 32 kts 284°
2026-05-03 20:34 12.50491 -70.02245 27 ft 33 kts 283°
2026-05-03 20:34 12.50541 -70.02460 23 ft 25 kts 284°
2026-05-03 20:35 12.50577 -70.02618 20 ft 15 kts 274°
2026-05-03 20:35 12.50507 -70.02719 19 ft 20 kts 200°
2026-05-03 20:35 12.50417 -70.02684 20 ft 16 kts 110°
2026-05-03 20:35 12.50362 -70.02444 23 ft 58 kts 103°
2026-05-03 20:36 12.50230 -70.01883 43 ft 99 kts 103°
2026-05-03 20:36 12.50078 -70.01197 267 ft 99 kts 99°
2026-05-03 20:36 12.49994 -70.00552 673 ft 87 kts 97°
2026-05-03 20:36 12.49980 -69.99903 920 ft 92 kts 89°
2026-05-03 20:37 12.50055 -69.99237 1177 ft 97 kts 78°
2026-05-03 20:37 12.50126 -69.98523 1491 ft 101 kts 86°
2026-05-03 20:37 12.50266 -69.97856 1906 ft 93 kts 66°
2026-05-03 20:37 12.50262 -69.97177 2106 ft 96 kts 89°
2026-05-03 20:38 12.50128 -69.96433 2246 ft 116 kts 102°
2026-05-03 20:38 12.49878 -69.95593 2409 ft 123 kts 110°
2026-05-03 20:38 12.49552 -69.94820 2773 ft 114 kts 111°
2026-05-03 20:38 12.49243 -69.94045 2929 ft 120 kts 109°
2026-05-03 20:39 12.48965 -69.93245 3136 ft 122 kts 107°
2026-05-03 20:39 12.48707 -69.92410 3364 ft 124 kts 104°
2026-05-03 20:39 12.48473 -69.91523 3602 ft 136 kts 103°
2026-05-03 20:39 12.48236 -69.90538 3829 ft 149 kts 103°
2026-05-03 20:40 12.47977 -69.89468 4056 ft 161 kts 103°
2026-05-03 20:40 12.47704 -69.88319 4308 ft 170 kts 104°
2026-05-03 20:40 12.47429 -69.87153 4699 ft 168 kts 104°
2026-05-03 20:40 12.47158 -69.85994 5042 ft 168 kts 104°
2026-05-03 20:41 12.46881 -69.84828 5291 ft 174 kts 104°
2026-05-03 20:41 12.46594 -69.83634 5624 ft 175 kts 103°
2026-05-03 20:41 12.46301 -69.82411 5911 ft 177 kts 103°
2026-05-03 20:41 12.46009 -69.81186 6255 ft 177 kts 103°
2026-05-03 20:42 12.45715 -69.79946 6527 ft 180 kts 103°
2026-05-03 20:42 12.45421 -69.78708 6887 ft 177 kts 103°
2026-05-03 20:42 12.45125 -69.77471 7115 ft 182 kts 103°
2026-05-03 20:42 12.44828 -69.76227 7453 ft 180 kts 103°
2026-05-03 20:43 12.44527 -69.74959 7673 ft 185 kts 103°
2026-05-03 20:43 12.44228 -69.73712 8010 ft 181 kts 103°
2026-05-03 20:43 12.43928 -69.72456 8333 ft 179 kts 103°
2026-05-03 20:43 12.43632 -69.71212 8628 ft 181 kts 103°
2026-05-03 20:44 12.43333 -69.69959 8864 ft 184 kts 103°
2026-05-03 20:44 12.43031 -69.68694 9161 ft 184 kts 103°
2026-05-03 20:44 12.42726 -69.67409 9373 ft 189 kts 103°
2026-05-03 20:44 12.42418 -69.66125 9749 ft 184 kts 103°
2026-05-03 20:45 12.42114 -69.64847 10012 ft 184 kts 104°
2026-05-03 20:45 12.41814 -69.63588 10287 ft 183 kts 104°
2026-05-03 20:45 12.41512 -69.62321 10477 ft 187 kts 104°
2026-05-03 20:45 12.41203 -69.61034 10709 ft 189 kts 103°
2026-05-03 20:46 12.40890 -69.59724 10941 ft 190 kts 104°
2026-05-03 20:46 12.40577 -69.58422 11219 ft 189 kts 103°
2026-05-03 20:46 12.40266 -69.57114 11478 ft 188 kts 104°
2026-05-03 20:46 12.39956 -69.55824 11733 ft 188 kts 104°
2026-05-03 20:47 12.39641 -69.54511 11933 ft 190 kts 104°
2026-05-03 20:47 12.39326 -69.53186 12109 ft 195 kts 104°
2026-05-03 20:47 12.39003 -69.51839 12347 ft 195 kts 104°
2026-05-03 20:47 12.38683 -69.50501 12592 ft 195 kts 104°
2026-05-03 20:48 12.38361 -69.49161 12799 ft 196 kts 104°
2026-05-03 20:48 12.38031 -69.47785 12871 ft 203 kts 104°
2026-05-03 20:48 12.37693 -69.46375 12905 ft 210 kts 104°
2026-05-03 20:48 12.37340 -69.44897 12916 ft 217 kts 104°
2026-05-03 20:49 12.36976 -69.43376 12935 ft 223 kts 104°
2026-05-03 20:49 12.36603 -69.41822 12936 ft 227 kts 104°
2026-05-03 20:49 12.36224 -69.40245 12934 ft 230 kts 104°
2026-05-03 20:49 12.35842 -69.38652 12940 ft 232 kts 104°
2026-05-03 20:50 12.35455 -69.37042 12935 ft 234 kts 104°
2026-05-03 20:50 12.35066 -69.35418 12938 ft 235 kts 104°
2026-05-03 20:50 12.34679 -69.33812 12935 ft 236 kts 104°
2026-05-03 20:50 12.34289 -69.32179 12936 ft 236 kts 104°
2026-05-03 20:51 12.33896 -69.30544 12944 ft 237 kts 104°
2026-05-03 20:51 12.33501 -69.28906 12941 ft 238 kts 104°
2026-05-03 20:51 12.33104 -69.27259 12941 ft 239 kts 104°
2026-05-03 20:51 12.32710 -69.25610 12945 ft 239 kts 104°
2026-05-03 20:52 12.32313 -69.23963 12941 ft 239 kts 104°
2026-05-03 20:52 12.31916 -69.22314 12940 ft 239 kts 104°
2026-05-03 20:52 12.31520 -69.20666 12940 ft 239 kts 104°
2026-05-03 20:52 12.31120 -69.19011 12941 ft 240 kts 104°
2026-05-03 20:53 12.30730 -69.17379 12942 ft 240 kts 104°
2026-05-03 20:53 12.30332 -69.15729 12940 ft 239 kts 104°
2026-05-03 20:53 12.29934 -69.14085 12950 ft 239 kts 104°
2026-05-03 20:53 12.29539 -69.12432 12947 ft 239 kts 104°
2026-05-03 20:54 12.29141 -69.10779 12941 ft 240 kts 104°
2026-05-03 20:54 12.28339 -69.07466 12943 ft 240 kts 104°
2026-05-03 20:54 12.27939 -69.05813 12943 ft 240 kts 104°
2026-05-03 20:55 12.27547 -69.04178 12942 ft 240 kts 104°
2026-05-03 20:55 12.27144 -69.02514 12928 ft 241 kts 104°
2026-05-03 20:55 12.26742 -69.00854 12935 ft 241 kts 104°
2026-05-03 20:55 12.26344 -68.99194 12939 ft 240 kts 104°
2026-05-03 20:56 12.25942 -68.97538 12938 ft 240 kts 104°
2026-05-03 20:56 12.25543 -68.95891 12784 ft 238 kts 104°
2026-05-03 20:56 12.25147 -68.94251 12462 ft 236 kts 104°
2026-05-03 20:56 12.24764 -68.92656 12218 ft 229 kts 104°
2026-05-03 20:57 12.24387 -68.91103 11938 ft 226 kts 104°
2026-05-03 20:57 12.24012 -68.89552 11600 ft 224 kts 104°
2026-05-03 20:57 12.23636 -68.87998 11268 ft 224 kts 104°
2026-05-03 20:57 12.23258 -68.86441 10889 ft 226 kts 104°
2026-05-03 20:58 12.22884 -68.84884 10617 ft 223 kts 104°
2026-05-03 20:58 12.22513 -68.83350 10405 ft 218 kts 104°
2026-05-03 20:58 12.22160 -68.81900 10036 ft 206 kts 104°
2026-05-03 20:58 12.21811 -68.80458 9482 ft 210 kts 104°
2026-05-03 20:59 12.21462 -68.79017 9151 ft 211 kts 104°
2026-05-03 20:59 12.21115 -68.77583 8863 ft 209 kts 104°
2026-05-03 20:59 12.20771 -68.76160 8593 ft 207 kts 104°
2026-05-03 20:59 12.20427 -68.74747 8319 ft 205 kts 104°
2026-05-03 21:00 12.20088 -68.73352 7969 ft 200 kts 104°
2026-05-03 21:00 12.19863 -68.72431 7573 ft 200 kts 104°
2026-05-03 21:00 12.19419 -68.70594 6882 ft 195 kts 104°
2026-05-03 21:00 12.19099 -68.69277 6515 ft 186 kts 104°
2026-05-03 21:01 12.18786 -68.67990 6011 ft 187 kts 105°
2026-05-03 21:01 12.18486 -68.66725 5590 ft 182 kts 104°
2026-05-03 21:01 12.18192 -68.65468 5074 ft 184 kts 105°
2026-05-03 21:01 12.17908 -68.64226 4628 ft 181 kts 104°
2026-05-03 21:02 12.17617 -68.62978 4372 ft 181 kts 104°
2026-05-03 21:02 12.17325 -68.61738 4222 ft 178 kts 105°
2026-05-03 21:02 12.17022 -68.60505 4072 ft 178 kts 105°
2026-05-03 21:02 12.16721 -68.59308 4045 ft 169 kts 105°
2026-05-03 21:03 12.16437 -68.58170 4053 ft 161 kts 104°
2026-05-03 21:03 12.16164 -68.57085 3883 ft 157 kts 105°
2026-05-03 21:03 12.15897 -68.56006 3597 ft 156 kts 104°
2026-05-03 21:03 12.15629 -68.54940 3295 ft 153 kts 103°
2026-05-03 21:04 12.15368 -68.53900 3224 ft 153 kts 103°
2026-05-03 21:04 12.15108 -68.52859 3164 ft 150 kts 102°
2026-05-03 21:04 12.14854 -68.51821 3050 ft 152 kts 103°
2026-05-03 21:04 12.14601 -68.50778 2973 ft 149 kts 103°
2026-05-03 21:05 12.14356 -68.49770 2938 ft 144 kts 103°
2026-05-03 21:05 12.14113 -68.48795 2895 ft 139 kts 102°
2026-05-03 21:05 12.13883 -68.47869 2867 ft 130 kts 102°
2026-05-03 21:05 12.13663 -68.46990 2724 ft 127 kts 103°
2026-05-03 21:06 12.13532 -68.46101 2485 ft 127 kts 92°
2026-05-03 21:06 12.13523 -68.45202 2173 ft 127 kts 89°
2026-05-03 21:06 12.13533 -68.44322 1927 ft 122 kts 87°
2026-05-03 21:06 12.13569 -68.43466 1674 ft 119 kts 88°
2026-05-03 21:07 12.13608 -68.42628 1360 ft 121 kts 84°
2026-05-03 21:07 12.13684 -68.41804 1194 ft 113 kts 82°
2026-05-03 21:07 12.13851 -68.41000 964 ft 119 kts 75°
2026-05-03 21:07 12.14040 -68.40208 882 ft 112 kts 86°
2026-05-03 21:08 12.14041 -68.39418 817 ft 111 kts 91°
2026-05-03 21:08 12.14018 -68.38645 808 ft 107 kts 97°
2026-05-03 21:08 12.13924 -68.37910 850 ft 101 kts 97°
2026-05-03 21:08 12.13798 -68.37202 813 ft 102 kts 97°
2026-05-03 21:09 12.13662 -68.36480 827 ft 106 kts 97°
2026-05-03 21:09 12.13517 -68.35724 880 ft 109 kts 99°
2026-05-03 21:09 12.13339 -68.34984 1005 ft 107 kts 99°
2026-05-03 21:09 12.13191 -68.34260 1022 ft 103 kts 93°
2026-05-03 21:10 12.13159 -68.33534 956 ft 103 kts 88°
2026-05-03 21:10 12.13158 -68.32809 921 ft 94 kts 88°
2026-05-03 21:10 12.13198 -68.32182 780 ft 86 kts 84°
2026-05-03 21:10 12.13204 -68.31586 543 ft 85 kts 91°
2026-05-03 21:11 12.13203 -68.30986 437 ft 84 kts 92°
2026-05-03 21:11 12.13217 -68.30392 426 ft 83 kts 93°
2026-05-03 21:11 12.13184 -68.29800 363 ft 86 kts 96°
2026-05-03 21:11 12.13151 -68.29193 278 ft 84 kts 95°
2026-05-03 21:12 12.13135 -68.28640 141 ft 77 kts 91°
2026-05-03 21:12 12.13119 -68.28067 48 ft 81 kts 91°
2026-05-03 21:12 12.13110 -68.27712 26 ft 3 kts 89°
2026-05-03 21:12 12.13110 -68.27677 27 ft 2 kts 91°
2026-05-03 21:13 12.13122 -68.27618 27 ft 8 kts 43°
2026-05-03 21:13 12.13172 -68.27604 28 ft 9 kts
2026-05-03 21:13 12.13205 -68.27656 28 ft 14 kts 272°
2026-05-03 21:13 12.13221 -68.27743 27 ft 5 kts 328°
2026-05-03 21:14 12.13260 -68.27739 27 ft 6 kts 14°
2026-05-03 21:14 12.13262 -68.27731 27 ft 0 kts 124°